Time,TemperatureF,DewpointF,PressureIn,WindDirection,WindDirectionDegrees,WindSpeedMPH,WindSpeedGustMPH,Humidity,HourlyPrecipIn,Conditions,Clouds,dailyrainin,SoftwareType,DateUTC
2013-03-14 00:03:00,20.5,-9.8,30.23,West,270,0.0,0.0,25,0.00,CLR,CLR,0.00,WeatherDisplay:10.37,2013-03-14 04:03:00,
2013-03-14 00:18:00,20.3,-10.0,30.26,West,270,0.0,0.0,25,0.00,CLR,CLR,0.00,WeatherDisplay:10.37,2013-03-14 04:18:00,
2013-03-14 00:33:00,19.6,-10.6,30.26,West,270,0.0,0.0,25,0.00,CLR,CLR,0.00,WeatherDisplay:10.37,2013-03-14 04:33:00,
2013-03-14 00:48:00,19.8,-10.5,30.26,West,270,0.0,0.0,25,0.00,CLR,CLR,0.00,WeatherDisplay:10.37,2013-03-14 04:48:00,
2013-03-14 01:03:00,20.1,-10.1,30.26,West,270,0.0,0.0,25,0.00,CLR,CLR,0.00,WeatherDisplay:10.37,2013-03-14 05:03:00,
2013-03-14 01:18:00,20.1,-10.1,30.26,West,270,0.0,0.0,25,0.00,CLR,CLR,0.00,WeatherDisplay:10.37,2013-03-14 05:18:00,
2013-03-14 01:33:00,19.6,-10.6,30.26,West,270,0.0,0.0,25,0.00,CLR,CLR,0.00,WeatherDisplay:10.37,2013-03-14 05:33:00,
2013-03-14 01:48:00,18.7,-11.4,30.26,West,270,0.0,0.0,25,0.00,CLR,CLR,0.00,WeatherDisplay:10.37,2013-03-14 05:48:00,
2013-03-14 02:03:00,18.5,-9.3,30.26,West,270,0.0,0.0,28,0.00,CLR,CLR,0.00,WeatherDisplay:10.37,2013-03-14 06:03:00,
2013-03-14 02:18:00,18.7,-9.1,30.26,West,270,0.0,0.0,28,0.00,CLR,CLR,0.00,WeatherDisplay:10.37,2013-03-14 06:18:00,
2013-03-14 02:33:00,18.5,-9.3,30.23,West,270,0.0,0.0,28,0.00,CLR,CLR,0.00,WeatherDisplay:10.37,2013-03-14 06:33:00,
2013-03-14 02:48:00,18.5,-7.8,30.26,West,270,0.0,0.0,30,0.00,CLR,CLR,0.00,WeatherDisplay:10.37,2013-03-14 06:48:00,
2013-03-14 03:03:00,18.7,-5.7,30.26,West,270,0.0,0.0,33,0.00,CLR,CLR,0.00,WeatherDisplay:10.37,2013-03-14 07:03:00,
2013-03-14 03:04:00,18.9,8.0,30.26,West,271,0.0,1.0,62,0.00,CLR,CLR,0.00,WeatherDisplay:10.37,2013-03-14 07:04:00,
2013-03-14 03:05:00,18.9,8.0,30.26,West,271,0.0,0.0,62,0.00,CLR,CLR,0.00,WeatherDisplay:10.37,2013-03-14 07:05:00,
2013-03-14 03:06:00,18.9,8.0,30.26,West,271,0.0,0.0,62,0.00,CLR,CLR,0.00,WeatherDisplay:10.37,2013-03-14 07:06:00,
2013-03-14 03:07:00,18.9,8.0,30.26,West,271,0.0,0.0,62,0.00,CLR,CLR,0.00,WeatherDisplay:10.37,2013-03-14 07:07:00,
2013-03-14 03:08:00,18.9,8.0,30.26,West,271,0.0,0.0,62,0.00,CLR,CLR,0.00,WeatherDisplay:10.37,2013-03-14 07:08:00,
2013-03-14 03:09:00,18.9,8.0,30.26,West,271,0.0,0.0,62,0.00,CLR,CLR,0.00,WeatherDisplay:10.37,2013-03-14 07:09:00,
2013-03-14 03:10:00,18.9,8.0,30.26,West,271,0.0,0.0,62,0.00,CLR,CLR,0.00,WeatherDisplay:10.37,2013-03-14 07:10:00,
2013-03-14 03:11:00,18.9,8.0,30.26,West,271,0.0,0.0,62,0.00,CLR,CLR,0.00,WeatherDisplay:10.37,2013-03-14 07:11:00,
2013-03-14 03:12:00,18.9,8.0,30.26,West,271,0.0,0.0,62,0.00,CLR,CLR,0.00,WeatherDisplay:10.37,2013-03-14 07:12:00,
2013-03-14 03:13:00,18.9,8.0,30.26,West,271,0.0,0.0,62,0.00,CLR,CLR,0.00,WeatherDisplay:10.37,2013-03-14 07:13:00,
2013-03-14 03:14:00,18.9,8.0,30.26,West,271,0.0,0.0,62,0.00,CLR,CLR,0.00,WeatherDisplay:10.37,2013-03-14 07:14:00,
2013-03-14 03:15:00,18.9,8.0,30.26,West,271,0.0,0.0,62,0.00,CLR,CLR,0.00,WeatherDisplay:10.37,2013-03-14 07:15:00,
2013-03-14 03:16:00,18.9,8.0,30.26,West,271,0.0,0.0,62,0.00,CLR,CLR,0.00,WeatherDisplay:10.37,2013-03-14 07:16:00,
2013-03-14 03:17:00,18.9,8.0,30.26,West,271,0.0,0.0,62,0.00,CLR,CLR,0.00,WeatherDisplay:10.37,2013-03-14 07:17:00,
2013-03-14 03:18:00,18.9,8.0,30.26,West,271,0.0,0.0,62,0.00,CLR,CLR,0.00,WeatherDisplay:10.37,2013-03-14 07:18:00,
2013-03-14 03:34:00,20.5,10.9,30.26,WSW,248,0.0,0.0,66,0.00,CLR,CLR,0.00,WeatherDisplay:10.37,2013-03-14 07:34:00,
2013-03-14 03:35:00,20.5,10.9,30.26,WSW,248,0.0,0.0,66,0.00,CLR,CLR,0.00,WeatherDisplay:10.37,2013-03-14 07:35:00,
2013-03-14 03:36:00,20.5,10.9,30.26,WSW,248,0.0,0.0,66,0.00,CLR,CLR,0.00,WeatherDisplay:10.37,2013-03-14 07:36:00,
2013-03-14 03:37:00,20.5,10.9,30.26,WSW,248,0.0,0.0,66,0.00,CLR,CLR,0.00,WeatherDisplay:10.37,2013-03-14 07:37:00,
2013-03-14 03:38:00,20.5,10.9,30.26,WSW,248,0.0,0.0,66,0.00,CLR,CLR,0.00,WeatherDisplay:10.37,2013-03-14 07:38:00,
2013-03-14 03:39:00,20.5,10.9,30.26,WSW,248,0.0,0.0,66,0.00,CLR,CLR,0.00,WeatherDisplay:10.37,2013-03-14 07:39:00,
2013-03-14 03:40:00,20.5,10.9,30.26,WSW,248,0.0,0.0,66,0.00,CLR,CLR,0.00,WeatherDisplay:10.37,2013-03-14 07:40:00,
2013-03-14 03:41:00,20.5,10.9,30.26,WSW,248,0.0,0.0,66,0.00,CLR,CLR,0.00,WeatherDisplay:10.37,2013-03-14 07:41:00,
2013-03-14 03:42:00,20.5,10.9,30.26,WSW,248,0.0,0.0,66,0.00,CLR,CLR,0.00,WeatherDisplay:10.37,2013-03-14 07:42:00,
2013-03-14 03:43:00,20.5,10.9,30.26,WSW,248,0.0,0.0,66,0.00,CLR,CLR,0.00,WeatherDisplay:10.37,2013-03-14 07:43:00,
2013-03-14 03:44:00,20.5,10.9,30.26,WSW,248,0.0,0.0,66,0.00,CLR,CLR,0.00,WeatherDisplay:10.37,2013-03-14 07:44:00,
2013-03-14 03:45:00,20.5,10.9,30.26,WSW,248,0.0,0.0,66,0.00,CLR,CLR,0.00,WeatherDisplay:10.37,2013-03-14 07:45:00,
2013-03-14 03:46:00,20.5,10.9,30.26,WSW,248,0.0,0.0,66,0.00,CLR,CLR,0.00,WeatherDisplay:10.37,2013-03-14 07:46:00,
2013-03-14 03:47:00,20.5,10.9,30.26,WSW,248,0.0,0.0,66,0.00,CLR,CLR,0.00,WeatherDisplay:10.37,2013-03-14 07:47:00,
2013-03-14 03:48:00,20.5,10.9,30.26,WSW,248,0.0,0.0,66,0.00,CLR,CLR,0.00,WeatherDisplay:10.37,2013-03-14 07:48:00,
2013-03-14 05:03:00,28.4,-4.8,30.29,WSW,253,3.0,6.0,23,0.00,CLR,CLR,0.00,WeatherDisplay:10.37,2013-03-14 09:03:00,
2013-03-14 05:18:00,29.7,-3.7,30.29,WSW,243,5.0,6.0,23,0.00,CLR,CLR,0.00,WeatherDisplay:10.37,2013-03-14 09:18:00,
2013-03-14 05:33:00,31.1,-2.5,30.26,SW,233,5.0,6.0,23,0.00,CLR,CLR,0.00,WeatherDisplay:10.37,2013-03-14 09:33:00,
2013-03-14 05:48:00,33.4,-0.5,30.26,WSW,245,1.0,8.0,23,0.00,CLR,CLR,0.00,WeatherDisplay:10.37,2013-03-14 09:48:00,
2013-03-14 06:03:00,35.6,0.4,30.23,SW,214,3.0,9.0,22,0.00,CLR,CLR,0.00,WeatherDisplay:10.37,2013-03-14 10:03:00,
2013-03-14 06:18:00,35.6,0.4,30.26,WSW,254,5.0,7.0,22,0.00,CLR,CLR,0.00,WeatherDisplay:10.37,2013-03-14 10:18:00,
2013-03-14 06:33:00,36.9,1.5,30.23,SSW,210,5.0,7.0,22,0.00,CLR,CLR,0.00,WeatherDisplay:10.37,2013-03-14 10:33:00,
2013-03-14 06:48:00,39.0,2.3,30.26,WSW,238,2.0,6.0,21,0.00,CLR,CLR,0.00,WeatherDisplay:10.37,2013-03-14 10:48:00,
2013-03-14 07:03:00,39.4,2.6,30.26,WSW,244,5.0,7.0,21,0.00,CLR,CLR,0.00,WeatherDisplay:10.37,2013-03-14 11:03:00,
2013-03-14 07:18:00,41.4,4.3,30.26,SW,227,3.0,6.0,21,0.00,CLR,CLR,0.00,WeatherDisplay:10.37,2013-03-14 11:18:00,
2013-03-14 07:33:00,39.7,2.9,30.26,SW,234,5.0,8.0,21,0.00,CLR,CLR,0.00,WeatherDisplay:10.37,2013-03-14 11:33:00,
2013-03-14 07:48:00,44.1,5.5,30.26,SW,223,5.0,5.0,20,0.00,CLR,CLR,0.00,WeatherDisplay:10.37,2013-03-14 11:48:00,
2013-03-14 08:03:00,43.0,4.6,30.26,SW,225,6.0,8.0,20,0.00,CLR,CLR,0.00,WeatherDisplay:10.37,2013-03-14 12:03:00,
2013-03-14 08:09:00,18.9,-2.6,30.26,WNW,292,2.9,0.0,38,0.00,CLR,,0.00,WeatherDisplay:10.37,2013-03-14 12:09:00,
2013-03-14 08:10:00,18.9,9.4,30.26,West,270,0.0,0.0,66,0.00,CLR,,0.00,WeatherDisplay:10.37,2013-03-14 12:10:00,
2013-03-14 08:12:00,18.9,8.0,30.26,West,270,0.0,0.0,62,0.00,CLR,,0.00,WeatherDisplay:10.37,2013-03-14 12:12:00,
2013-03-14 08:17:00,18.9,8.0,30.26,West,270,0.0,0.0,62,0.00,CLR,,0.00,WeatherDisplay:10.37,2013-03-14 12:17:00,
2013-03-14 08:18:00,43.0,4.6,30.26,SW,225,5.0,8.0,20,0.00,CLR,CLR,0.00,WeatherDisplay:10.37,2013-03-14 12:18:00,
2013-03-14 08:22:00,19.0,9.5,30.26,West,270,0.0,0.0,66,0.00,CLR,,0.00,WeatherDisplay:10.37,2013-03-14 12:22:00,
2013-03-14 08:27:00,19.2,9.7,30.26,West,270,0.0,0.0,66,0.00,CLR,,0.00,WeatherDisplay:10.37,2013-03-14 12:27:00,
2013-03-14 08:32:00,19.6,9.7,30.26,WSW,248,0.0,0.0,65,0.00,CLR,,0.00,WeatherDisplay:10.37,2013-03-14 12:32:00,
2013-03-14 08:33:00,46.8,6.6,30.23,SW,223,5.0,6.0,19,0.00,CLR,CLR,0.00,WeatherDisplay:10.37,2013-03-14 12:33:00,
2013-03-14 08:39:00,19.9,-2.2,30.26,WSW,248,0.0,0.0,37,0.00,CLR,,0.00,WeatherDisplay:10.37,2013-03-14 12:39:00,
2013-03-14 08:44:00,20.3,10.7,30.26,WSW,248,0.0,0.0,66,0.00,CLR,,0.00,WeatherDisplay:10.37,2013-03-14 12:44:00,
2013-03-14 08:48:00,43.9,5.3,30.23,WSW,246,7.0,9.0,20,0.00,CLR,CLR,0.00,WeatherDisplay:10.37,2013-03-14 12:48:00,
2013-03-14 08:50:00,20.7,11.1,30.26,WSW,248,0.0,0.0,66,0.00,CLR,,0.00,WeatherDisplay:10.37,2013-03-14 12:50:00,
2013-03-14 08:55:00,21.0,11.1,30.26,WSW,248,0.0,0.0,65,0.00,CLR,,0.00,WeatherDisplay:10.37,2013-03-14 12:55:00,
2013-03-14 09:00:00,21.2,11.6,30.26,South,180,2.3,2.3,66,0.00,CLR,,0.00,WeatherDisplay:10.37,2013-03-14 13:00:00,
2013-03-14 09:03:00,45.9,7.0,30.23,West,269,5.0,9.0,20,0.00,CLR,CLR,0.00,WeatherDisplay:10.37,2013-03-14 13:03:00,
2013-03-14 09:05:00,21.6,11.6,30.26,South,180,0.0,0.0,65,0.00,CLR,,0.00,WeatherDisplay:10.37,2013-03-14 13:05:00,
2013-03-14 09:10:00,21.9,11.9,30.26,South,180,0.0,0.0,65,0.00,CLR,,0.00,WeatherDisplay:10.37,2013-03-14 13:10:00,
2013-03-14 09:15:00,22.3,12.3,30.26,SSW,202,2.0,2.0,65,0.00,CLR,,0.00,WeatherDisplay:10.37,2013-03-14 13:15:00,
2013-03-14 09:18:00,46.8,6.6,30.23,SW,232,6.0,8.0,19,0.00,CLR,CLR,0.00,WeatherDisplay:10.37,2013-03-14 13:18:00,
2013-03-14 09:20:00,22.8,13.8,30.29,SW,225,2.3,2.3,68,0.00,CLR,,0.00,WeatherDisplay:10.37,2013-03-14 13:20:00,
2013-03-14 09:25:00,23.5,14.9,30.29,SW,225,3.5,3.5,69,0.00,CLR,,0.00,WeatherDisplay:10.37,2013-03-14 13:25:00,
2013-03-14 09:30:00,24.1,15.0,30.29,SW,225,5.8,5.8,68,0.00,CLR,,0.00,WeatherDisplay:10.37,2013-03-14 13:30:00,
2013-03-14 09:33:00,47.7,7.3,30.20,WSW,250,3.0,8.0,19,0.00,CLR,CLR,0.00,WeatherDisplay:10.37,2013-03-14 13:33:00,
2013-03-14 09:35:00,25.3,15.2,30.29,WSW,248,4.6,4.6,65,0.00,CLR,,0.00,WeatherDisplay:10.37,2013-03-14 13:35:00,
2013-03-14 09:43:00,25.9,15.7,30.29,SW,225,5.4,5.4,65,0.00,CLR,,0.00,WeatherDisplay:10.37,2013-03-14 13:43:00,
2013-03-14 09:48:00,26.4,13.2,30.29,WSW,248,4.0,4.0,57,0.00,CLR,,0.00,WeatherDisplay:10.37,2013-03-14 13:48:00,
2013-03-14 09:53:00,27.1,13.9,30.29,SW,225,5.8,5.8,57,0.00,CLR,,0.00,WeatherDisplay:10.37,2013-03-14 13:53:00,
2013-03-14 09:58:00,27.7,12.3,30.29,WSW,248,8.1,8.1,52,0.00,CLR,,0.00,WeatherDisplay:10.37,2013-03-14 13:58:00,
2013-03-14 10:03:00,47.1,6.9,30.17,SW,234,6.0,9.0,19,0.00,CLR,CLR,0.00,WeatherDisplay:10.37,2013-03-14 14:03:00,
2013-03-14 10:18:00,47.1,6.9,30.20,SSW,211,2.0,6.0,19,0.00,CLR,CLR,0.00,WeatherDisplay:10.37,2013-03-14 14:18:00,
2013-03-14 10:33:00,49.5,8.8,30.20,SSW,199,7.0,9.0,19,0.00,CLR,CLR,0.00,WeatherDisplay:10.37,2013-03-14 14:33:00,
2013-03-14 10:48:00,46.8,6.6,30.17,WSW,240,7.0,8.0,19,0.00,CLR,CLR,0.00,WeatherDisplay:10.37,2013-03-14 14:48:00,
2013-03-14 11:03:00,47.1,6.9,30.17,SW,217,7.0,10.0,19,0.00,CLR,CLR,0.00,WeatherDisplay:10.37,2013-03-14 15:03:00,
2013-03-14 11:04:00,47.7,27.9,30.17,WSW,254,9.0,13.0,46,0.00,FEW,FEW,0.00,WeatherDisplay:10.37,2013-03-14 15:04:00,
2013-03-14 11:05:00,47.7,27.9,30.17,WSW,254,9.0,0.0,46,0.00,FEW,FEW,0.00,WeatherDisplay:10.37,2013-03-14 15:05:00,
2013-03-14 11:06:00,47.7,27.9,30.17,WSW,254,9.0,0.0,46,0.00,FEW,FEW,0.00,WeatherDisplay:10.37,2013-03-14 15:06:00,
2013-03-14 11:07:00,47.7,27.9,30.17,WSW,254,9.0,0.0,46,0.00,FEW,FEW,0.00,WeatherDisplay:10.37,2013-03-14 15:07:00,
2013-03-14 11:08:00,47.7,27.9,30.17,WSW,254,9.0,0.0,46,0.00,FEW,FEW,0.00,WeatherDisplay:10.37,2013-03-14 15:08:00,
2013-03-14 11:09:00,47.7,27.9,30.17,WSW,254,9.0,0.0,46,0.00,FEW,FEW,0.00,WeatherDisplay:10.37,2013-03-14 15:09:00,
2013-03-14 11:10:00,47.7,27.9,30.17,WSW,254,9.0,0.0,46,0.00,FEW,FEW,0.00,WeatherDisplay:10.37,2013-03-14 15:10:00,
2013-03-14 11:11:00,47.7,27.9,30.17,WSW,254,9.0,0.0,46,0.00,FEW,FEW,0.00,WeatherDisplay:10.37,2013-03-14 15:11:00,
2013-03-14 11:12:00,47.7,27.9,30.17,WSW,254,9.0,0.0,46,0.00,FEW,FEW,0.00,WeatherDisplay:10.37,2013-03-14 15:12:00,
2013-03-14 11:13:00,47.7,27.9,30.17,WSW,254,9.0,0.0,46,0.00,FEW,FEW,0.00,WeatherDisplay:10.37,2013-03-14 15:13:00,
2013-03-14 11:15:00,47.7,27.9,30.17,WSW,254,9.0,0.0,46,0.00,FEW,FEW,0.00,WeatherDisplay:10.37,2013-03-14 15:15:00,
2013-03-14 11:16:00,47.7,27.9,30.17,WSW,254,9.0,0.0,46,0.00,FEW,FEW,0.00,WeatherDisplay:10.37,2013-03-14 15:16:00,
2013-03-14 11:17:00,47.7,27.9,30.17,WSW,254,9.0,0.0,46,0.00,FEW,FEW,0.00,WeatherDisplay:10.37,2013-03-14 15:17:00,
2013-03-14 11:18:00,47.7,27.9,30.17,WSW,254,9.0,0.0,46,0.00,FEW,FEW,0.00,WeatherDisplay:10.37,2013-03-14 15:18:00,
2013-03-14 16:09:00,49.3,8.7,30.17,SSW,202,12.3,12.3,19,0.00,CLR,,0.00,WeatherDisplay:10.37,2013-03-14 20:09:00,
2013-03-14 16:14:00,47.7,27.9,30.17,West,270,10.4,10.4,46,0.00,CLR,,0.00,WeatherDisplay:10.37,2013-03-14 20:14:00,
2013-03-14 16:19:00,46.8,27.0,30.17,West,270,12.7,12.7,46,0.00,FEW,,0.00,WeatherDisplay:10.37,2013-03-14 20:19:00,
2013-03-14 16:24:00,47.5,27.7,30.17,West,270,8.1,8.1,46,0.00,FEW,,0.00,WeatherDisplay:10.37,2013-03-14 20:24:00,
2013-03-14 16:29:00,49.5,29.5,30.17,South,180,10.5,10.5,46,0.00,FEW,,0.00,WeatherDisplay:10.37,2013-03-14 20:29:00,
2013-03-14 16:34:00,47.5,27.7,30.14,West,270,8.1,8.1,46,0.00,FEW,,0.00,WeatherDisplay:10.37,2013-03-14 20:34:00,
2013-03-14 16:39:00,47.5,27.7,30.14,SW,225,9.2,9.2,46,0.00,FEW,,0.00,WeatherDisplay:10.37,2013-03-14 20:39:00,
2013-03-14 16:44:00,48.0,28.2,30.14,SW,225,5.8,5.8,46,0.00,FEW,,0.00,WeatherDisplay:10.37,2013-03-14 20:44:00,
2013-03-14 16:49:00,48.2,28.4,30.14,SW,225,10.4,10.4,46,0.00,FEW,,0.00,WeatherDisplay:10.37,2013-03-14 20:49:00,
2013-03-14 16:54:00,48.0,28.2,30.14,SSW,202,5.8,5.9,46,0.00,FEW,,0.00,WeatherDisplay:10.37,2013-03-14 20:54:00,
2013-03-14 16:59:00,47.3,27.5,30.14,West,270,10.4,10.4,46,0.00,FEW,,0.00,WeatherDisplay:10.37,2013-03-14 20:59:00,
2013-03-14 17:04:00,47.3,27.5,30.14,West,270,9.2,9.2,46,0.00,OVC,,0.00,WeatherDisplay:10.37,2013-03-14 21:04:00,
2013-03-14 17:09:00,48.9,29.0,30.14,West,270,4.6,4.6,46,0.00,OVC,,0.00,WeatherDisplay:10.37,2013-03-14 21:09:00,
2013-03-14 17:14:00,47.7,27.9,30.14,SW,225,10.4,10.4,46,0.00,OVC,,0.00,WeatherDisplay:10.37,2013-03-14 21:14:00,
2013-03-14 17:19:00,47.3,27.5,30.14,SW,225,9.4,9.4,46,0.00,OVC,,0.00,WeatherDisplay:10.37,2013-03-14 21:19:00,
2013-03-14 17:24:00,46.9,27.2,30.14,SW,225,6.9,6.9,46,0.00,OVC,,0.00,WeatherDisplay:10.37,2013-03-14 21:24:00,
2013-03-14 17:29:00,44.8,26.3,30.14,West,270,8.1,8.1,48,0.00,OVC,,0.00,WeatherDisplay:10.37,2013-03-14 21:29:00,
2013-03-14 17:34:00,44.8,26.3,30.14,West,270,10.4,10.4,48,0.00,OVC,,0.00,WeatherDisplay:10.37,2013-03-14 21:34:00,
2013-03-14 17:39:00,45.3,26.8,30.14,WNW,292,5.8,5.8,48,0.00,OVC,,0.00,WeatherDisplay:10.37,2013-03-14 21:39:00,
2013-03-14 17:44:00,45.1,26.6,30.14,West,270,6.9,6.9,48,0.00,OVC,,0.00,WeatherDisplay:10.37,2013-03-14 21:44:00,
2013-03-14 17:49:00,45.3,26.8,30.11,West,270,4.6,4.6,48,0.00,OVC,,0.00,WeatherDisplay:10.37,2013-03-14 21:49:00,
2013-03-14 17:54:00,44.6,26.1,30.11,West,270,10.2,10.2,48,0.00,OVC,,0.00,WeatherDisplay:10.37,2013-03-14 21:54:00,
2013-03-14 17:59:00,43.5,25.1,30.11,West,270,10.0,10.0,48,0.00,OVC,,0.00,WeatherDisplay:10.37,2013-03-14 21:59:00,
2013-03-14 18:04:00,43.3,24.9,30.14,West,270,4.6,4.6,48,0.00,OVC,,0.00,WeatherDisplay:10.37,2013-03-14 22:04:00,
2013-03-14 18:09:00,44.1,25.6,30.14,WSW,248,4.3,4.3,48,0.00,OVC,,0.00,WeatherDisplay:10.37,2013-03-14 22:09:00,
2013-03-14 18:14:00,43.9,25.4,30.14,SSW,202,4.6,4.6,48,0.00,OVC,,0.00,WeatherDisplay:10.37,2013-03-14 22:14:00,
2013-03-14 18:19:00,42.8,24.4,30.14,WSW,248,6.2,6.2,48,0.00,OVC,,0.00,WeatherDisplay:10.37,2013-03-14 22:19:00,
2013-03-14 18:24:00,43.0,24.6,30.14,SW,225,5.8,5.8,48,0.00,OVC,,0.00,WeatherDisplay:10.37,2013-03-14 22:24:00,
2013-03-14 18:29:00,43.0,24.6,30.14,SW,225,4.6,4.6,48,0.00,OVC,,0.00,WeatherDisplay:10.37,2013-03-14 22:29:00,
2013-03-14 18:34:00,43.0,24.6,30.14,South,180,4.6,4.6,48,0.00,OVC,,0.00,WeatherDisplay:10.37,2013-03-14 22:34:00,
2013-03-14 18:39:00,42.8,24.4,30.14,WSW,248,4.6,4.6,48,0.00,OVC,,0.00,WeatherDisplay:10.37,2013-03-14 22:39:00,
2013-03-14 18:44:00,42.8,24.4,30.14,SW,225,6.9,6.9,48,0.00,OVC,,0.00,WeatherDisplay:10.37,2013-03-14 22:44:00,
2013-03-14 18:48:00,36.0,0.7,30.11,SSE,159,2.0,4.0,22,0.00,CLR,CLR,0.00,WeatherDisplay:10.37,2013-03-14 22:48:00,
2013-03-14 18:49:00,42.4,24.6,30.14,WSW,248,5.8,5.9,49,0.00,OVC,,0.00,WeatherDisplay:10.37,2013-03-14 22:49:00,
2013-03-14 18:54:00,42.6,24.8,30.14,SW,225,6.9,6.9,49,0.00,OVC,,0.00,WeatherDisplay:10.37,2013-03-14 22:54:00,
2013-03-14 18:59:00,42.4,24.6,30.14,WSW,248,5.8,5.8,49,0.00,OVC,,0.00,WeatherDisplay:10.37,2013-03-14 22:59:00,
2013-03-14 19:03:00,35.8,0.6,30.11,South,175,2.0,4.0,22,0.00,CLR,CLR,0.00,WeatherDisplay:10.37,2013-03-14 23:03:00,
2013-03-14 19:04:00,42.4,24.6,30.14,SW,225,5.8,5.8,49,0.00,OVC,,0.00,WeatherDisplay:10.37,2013-03-14 23:04:00,
2013-03-14 19:09:00,42.3,24.4,30.14,SW,225,8.1,8.1,49,0.00,OVC,,0.00,WeatherDisplay:10.37,2013-03-14 23:09:00,
2013-03-14 19:14:00,42.3,24.4,30.14,WSW,248,5.8,5.8,49,0.00,OVC,,0.00,WeatherDisplay:10.37,2013-03-14 23:14:00,
2013-03-14 19:18:00,35.8,0.6,30.11,SE,135,1.0,3.0,22,0.00,CLR,CLR,0.00,WeatherDisplay:10.37,2013-03-14 23:18:00,
2013-03-14 19:19:00,41.9,24.1,30.14,SW,225,5.8,5.8,49,0.00,BKN,,0.00,WeatherDisplay:10.37,2013-03-14 23:19:00,
2013-03-14 19:24:00,41.9,24.1,30.14,WSW,248,8.1,8.1,49,0.00,BKN,,0.00,WeatherDisplay:10.37,2013-03-14 23:24:00,
2013-03-14 19:29:00,41.7,23.9,30.14,WSW,248,5.8,5.8,49,0.00,BKN,,0.00,WeatherDisplay:10.37,2013-03-14 23:29:00,
2013-03-14 19:33:00,35.8,0.6,30.11,SE,135,1.0,3.0,22,0.00,CLR,CLR,0.00,WeatherDisplay:10.37,2013-03-14 23:33:00,
2013-03-14 19:34:00,41.5,23.8,30.14,WSW,248,8.1,8.1,49,0.00,BKN,,0.00,WeatherDisplay:10.37,2013-03-14 23:34:00,
2013-03-14 19:39:00,41.5,23.8,30.14,WSW,248,5.8,5.8,49,0.00,BKN,,0.00,WeatherDisplay:10.37,2013-03-14 23:39:00,
2013-03-14 19:44:00,40.5,22.8,30.14,South,180,7.6,7.6,49,0.00,BKN,,0.00,WeatherDisplay:10.37,2013-03-14 23:44:00,
2013-03-14 19:48:00,35.4,0.3,30.08,SE,135,1.0,2.0,22,0.00,CLR,CLR,0.00,WeatherDisplay:10.37,2013-03-14 23:48:00,
2013-03-14 19:49:00,39.2,21.6,30.14,WNW,292,3.1,3.1,49,0.00,BKN,,0.00,WeatherDisplay:10.37,2013-03-14 23:49:00,
2013-03-14 19:54:00,38.5,21.0,30.14,West,270,4.6,4.6,49,0.00,BKN,,0.00,WeatherDisplay:10.37,2013-03-14 23:54:00,
2013-03-14 19:59:00,38.1,20.6,30.14,SW,225,2.4,2.4,49,0.00,BKN,,0.00,WeatherDisplay:10.37,2013-03-14 23:59:00,
2013-03-14 20:03:00,34.9,-0.2,30.08,SE,135,1.0,2.0,22,0.00,CLR,CLR,0.00,WeatherDisplay:10.37,2013-03-15 00:03:00,
2013-03-14 20:04:00,37.6,20.1,30.14,SW,225,4.6,4.6,49,0.00,OVC,,0.00,WeatherDisplay:10.37,2013-03-15 00:04:00,
2013-03-14 20:10:00,37.4,20.0,30.14,SW,225,4.6,4.6,49,0.00,OVC,,0.00,WeatherDisplay:10.37,2013-03-15 00:10:00,
2013-03-14 20:15:00,37.0,20.6,30.14,WSW,248,4.6,4.6,51,0.00,OVC,,0.00,WeatherDisplay:10.37,2013-03-15 00:15:00,
2013-03-14 20:18:00,34.3,-0.6,30.08,SE,135,1.0,2.0,22,0.00,CLR,CLR,0.00,WeatherDisplay:10.37,2013-03-15 00:18:00,
2013-03-14 20:20:00,36.9,20.4,30.14,West,270,5.8,5.8,51,0.00,OVC,,0.00,WeatherDisplay:10.37,2013-03-15 00:20:00,
2013-03-14 20:25:00,36.7,20.2,30.14,WSW,248,5.8,5.9,51,0.00,OVC,,0.00,WeatherDisplay:10.37,2013-03-15 00:25:00,
2013-03-14 20:30:00,36.3,19.9,30.14,West,270,6.9,6.9,51,0.00,OVC,,0.00,WeatherDisplay:10.37,2013-03-15 00:30:00,
2013-03-14 20:33:00,33.8,-1.1,30.08,SE,135,1.0,2.0,22,0.00,CLR,CLR,0.00,WeatherDisplay:10.37,2013-03-15 00:33:00,
2013-03-14 20:35:00,36.3,19.9,30.14,SW,225,4.6,4.6,51,0.00,OVC,,0.00,WeatherDisplay:10.37,2013-03-15 00:35:00,
2013-03-14 20:40:00,36.3,19.9,30.14,SW,225,3.5,3.5,51,0.00,OVC,,0.00,WeatherDisplay:10.37,2013-03-15 00:40:00,
2013-03-14 20:45:00,36.3,19.9,30.14,SW,225,3.8,3.8,51,0.00,OVC,,0.00,WeatherDisplay:10.37,2013-03-15 00:45:00,
2013-03-14 20:48:00,33.8,1.6,30.05,SSE,156,2.0,3.0,25,0.00,CLR,CLR,0.00,WeatherDisplay:10.37,2013-03-15 00:48:00,
2013-03-14 20:50:00,36.3,19.9,30.14,SW,225,3.5,3.5,51,0.00,OVC,,0.00,WeatherDisplay:10.37,2013-03-15 00:50:00,
2013-03-14 20:55:00,36.1,19.7,30.14,SW,225,2.4,2.4,51,0.00,OVC,,0.00,WeatherDisplay:10.37,2013-03-15 00:55:00,
2013-03-14 21:00:00,36.1,19.7,30.14,SW,225,2.6,2.6,51,0.00,OVC,,0.00,WeatherDisplay:10.37,2013-03-15 01:00:00,
2013-03-14 21:03:00,33.4,1.3,30.08,South,180,2.0,3.0,25,0.00,CLR,CLR,0.00,WeatherDisplay:10.37,2013-03-15 01:03:00,
2013-03-14 21:05:00,36.1,21.1,30.14,SW,225,3.5,3.5,54,0.00,-SN,,0.00,WeatherDisplay:10.37,2013-03-15 01:05:00,
2013-03-14 21:10:00,36.1,22.8,30.14,West,270,3.1,3.1,58,0.00,-SN,,0.00,WeatherDisplay:10.37,2013-03-15 01:10:00,
2013-03-14 21:15:00,36.1,21.1,30.14,WSW,248,3.6,3.6,54,0.00,-SN,,0.00,WeatherDisplay:10.37,2013-03-15 01:15:00,
2013-03-14 21:18:00,33.4,3.8,30.08,South,180,2.0,4.0,28,0.00,CLR,CLR,0.00,WeatherDisplay:10.37,2013-03-15 01:18:00,
2013-03-14 21:20:00,36.1,21.1,30.14,SSW,202,2.3,2.3,54,0.00,-SN,,0.00,WeatherDisplay:10.37,2013-03-15 01:20:00,
2013-03-14 21:25:00,36.1,21.1,30.14,West,270,2.3,2.4,54,0.00,-SN,,0.00,WeatherDisplay:10.37,2013-03-15 01:25:00,
2013-03-14 21:30:00,36.3,21.2,30.14,West,270,3.5,3.5,54,0.00,-SN,,0.00,WeatherDisplay:10.37,2013-03-15 01:30:00,
2013-03-14 21:33:00,33.4,5.3,30.08,South,180,3.0,4.0,30,0.00,CLR,CLR,0.00,WeatherDisplay:10.37,2013-03-15 01:33:00,
2013-03-14 21:35:00,36.1,21.1,30.14,WSW,248,2.3,2.3,54,0.00,-SN,,0.00,WeatherDisplay:10.37,2013-03-15 01:35:00,
2013-03-14 21:40:00,36.1,21.1,30.14,SW,225,2.4,2.4,54,0.00,-SN,,0.00,WeatherDisplay:10.37,2013-03-15 01:40:00,
2013-03-14 21:45:00,36.1,19.7,30.14,SW,225,1.2,0.0,51,0.00,-SN,,0.00,WeatherDisplay:10.37,2013-03-15 01:45:00,
2013-03-14 21:48:00,33.3,5.1,30.05,South,180,2.0,4.0,30,0.00,CLR,CLR,0.00,WeatherDisplay:10.37,2013-03-15 01:48:00,
2013-03-14 21:50:00,36.1,19.7,30.11,South,180,2.3,2.3,51,0.00,-SN,,0.00,WeatherDisplay:10.37,2013-03-15 01:50:00,
2013-03-14 21:55:00,36.1,19.7,30.11,South,180,1.2,1.2,51,0.00,-SN,,0.00,WeatherDisplay:10.37,2013-03-15 01:55:00,
2013-03-14 22:00:00,36.1,19.7,30.11,South,180,0.0,0.0,51,0.00,-SN,,0.00,WeatherDisplay:10.37,2013-03-15 02:00:00,
2013-03-14 22:03:00,33.1,5.7,30.05,SSE,164,1.0,3.0,31,0.00,CLR,CLR,0.00,WeatherDisplay:10.37,2013-03-15 02:03:00,
2013-03-14 22:05:00,36.1,19.7,30.14,SE,135,1.2,0.0,51,0.00,-SN,,0.00,WeatherDisplay:10.37,2013-03-15 02:05:00,
2013-03-14 22:10:00,36.1,19.7,30.14,NNE,22,1.6,1.6,51,0.00,-SN,,0.00,WeatherDisplay:10.37,2013-03-15 02:10:00,
2013-03-14 22:15:00,36.0,19.6,30.14,NE,45,0.0,0.0,51,0.00,-SN,,0.00,WeatherDisplay:10.37,2013-03-15 02:15:00,
2013-03-14 22:18:00,32.9,5.5,30.02,South,182,2.0,5.0,31,0.00,CLR,CLR,0.00,WeatherDisplay:10.37,2013-03-15 02:18:00,
2013-03-14 22:20:00,36.0,19.6,30.11,NE,45,0.0,0.0,51,0.00,-SN,,0.00,WeatherDisplay:10.37,2013-03-15 02:20:00,
2013-03-14 22:25:00,36.0,19.6,30.11,NE,45,0.0,0.0,51,0.00,-SN,,0.00,WeatherDisplay:10.37,2013-03-15 02:25:00,
2013-03-14 22:30:00,36.0,19.6,30.11,SE,135,0.0,0.0,51,0.00,-SN,,0.00,WeatherDisplay:10.37,2013-03-15 02:30:00,
2013-03-14 22:33:00,33.1,6.4,30.02,South,176,3.0,4.0,32,0.00,CLR,CLR,0.00,WeatherDisplay:10.37,2013-03-15 02:33:00,
2013-03-14 22:35:00,36.0,19.6,30.14,East,90,0.0,0.0,51,0.00,-SN,,0.00,WeatherDisplay:10.37,2013-03-15 02:35:00,
2013-03-14 22:40:00,36.0,19.6,30.14,SE,135,1.2,1.2,51,0.00,-SN,,0.00,WeatherDisplay:10.37,2013-03-15 02:40:00,
2013-03-14 22:45:00,35.8,19.4,30.14,SE,135,0.0,0.0,51,0.00,-SN,,0.00,WeatherDisplay:10.37,2013-03-15 02:45:00,
2013-03-14 22:48:00,33.1,7.1,30.02,SSE,167,3.0,6.0,33,0.00,CLR,CLR,0.00,WeatherDisplay:10.37,2013-03-15 02:48:00,
2013-03-14 22:50:00,35.8,19.4,30.14,South,180,3.5,3.5,51,0.00,-SN,,0.00,WeatherDisplay:10.37,2013-03-15 02:50:00,
2013-03-14 22:55:00,35.8,19.4,30.14,South,180,3.5,3.5,51,0.00,-SN,,0.00,WeatherDisplay:10.37,2013-03-15 02:55:00,
2013-03-14 23:00:00,35.8,19.4,30.14,South,180,2.3,2.3,51,0.00,-SN,,0.00,WeatherDisplay:10.37,2013-03-15 03:00:00,
2013-03-14 23:03:00,33.1,7.7,30.02,South,176,3.0,6.0,34,0.00,CLR,CLR,0.00,WeatherDisplay:10.37,2013-03-15 03:03:00,
2013-03-14 23:05:00,35.8,19.4,30.14,SE,135,2.3,2.3,51,0.00,-SN,,0.00,WeatherDisplay:10.37,2013-03-15 03:05:00,
2013-03-14 23:10:00,35.8,19.4,30.14,SE,135,2.3,2.3,51,0.00,-SN,,0.00,WeatherDisplay:10.37,2013-03-15 03:10:00,
2013-03-14 23:15:00,35.8,19.4,30.14,South,180,3.6,3.6,51,0.00,-SN,,0.00,WeatherDisplay:10.37,2013-03-15 03:15:00,
2013-03-14 23:18:00,33.1,7.7,30.02,South,176,2.0,5.0,34,0.00,CLR,CLR,0.00,WeatherDisplay:10.37,2013-03-15 03:18:00,
2013-03-14 23:21:00,36.0,19.6,30.14,South,180,3.5,3.5,51,0.00,-SN,,0.00,WeatherDisplay:10.37,2013-03-15 03:21:00,
2013-03-14 23:26:00,36.0,20.9,30.14,SE,135,4.6,4.6,54,0.00,-SN,,0.00,WeatherDisplay:10.37,2013-03-15 03:26:00,
2013-03-14 23:31:00,36.0,20.9,30.14,SE,135,2.3,2.3,54,0.00,-SN,,0.00,WeatherDisplay:10.37,2013-03-15 03:31:00,
2013-03-14 23:33:00,32.7,6.7,29.99,South,177,2.0,5.0,33,0.00,CLR,CLR,0.00,WeatherDisplay:10.37,2013-03-15 03:33:00,
2013-03-14 23:36:00,36.0,19.6,30.11,South,180,3.6,3.6,51,0.00,-SN,,0.00,WeatherDisplay:10.37,2013-03-15 03:36:00,
2013-03-14 23:41:00,36.0,20.9,30.11,South,180,5.8,5.8,54,0.00,-SN,,0.00,WeatherDisplay:10.37,2013-03-15 03:41:00,
2013-03-14 23:46:00,36.0,19.6,30.11,SE,135,2.3,2.3,51,0.00,-SN,,0.00,WeatherDisplay:10.37,2013-03-15 03:46:00,
2013-03-14 23:48:00,32.5,7.2,29.96,SE,135,1.0,4.0,34,0.00,CLR,CLR,0.00,WeatherDisplay:10.37,2013-03-15 03:48:00,